Location: Stigler
(35.2540°N, 95.1230°W)
Time: 13:55:12
(UTC-05:00)

Daily predictions for brighter satellites

Satellite Brightness Start Highest point End
(mag) Time Altitude Azimuth Time Altitude Azimuth Time Altitude Azimuth
BREEZE-M DEB (TANK) 3.7 19:20:10 10° NW 19:23:29 69° NE 19:34:02 10° SE
SEDSat Delta rocket 4.4 19:20:07 10° WSW 19:26:31 59° S 19:33:13 10° E
NOSS 3-2 (A) 3.4 19:21:53 10° SSW 19:27:49 74° ESE 19:34:15 10° NE
SL-16 R/B 2.2 19:22:12 10° S 19:27:50 70° ESE 19:33:30 10° NNE
DMSP B5D1-3 4.5 19:27:52 10° NNE 19:32:59 74° ESE 19:38:04 10° S
ATLAS CENTAUR R/B 1.2 19:29:30 10° NNW 19:33:39 73° ENE 19:37:27 10° SE
Blok-ML 4.3 19:28:31 10° NNW 19:34:33 83° ENE 19:40:19 10° SE
SKYMED 2 3.8 19:30:25 10° N 19:34:45 77° WNW 19:39:05 10° SSW
SL-8 R/B 4.4 19:32:35 10° SSW 19:36:54 34° SE 19:41:14 10° ENE
Cosmos 1437 2.7 19:38:08 10° N 19:41:25 78° E 19:44:41 10° SSE
Cosmos 1953 3.2 19:41:52 10° SSE 19:45:19 28° E 19:48:44 10° NNE
Cosmos 1378 3.3 19:43:01 10° N 19:46:40 51° E 19:50:17 10° SSE
Cosmos 1805 4.0 19:46:35 10° SSE 19:50:03 31° E 19:53:34 10° NNE
SAR-Lupe-4 3.5 19:49:13 10° SSE 19:52:47 81° ENE 19:56:22 10° N
Meteor 1-28 Rocket 3.1 19:49:56 10° NNE 19:53:40 77° E 19:57:21 10° S
Okean 3 Rocket 3.7 19:49:57 10° N 19:54:31 83° W 19:59:03 10° S
Resurs 01 Rocket 2.2 19:50:56 10° SE 19:54:59 36° ENE 19:59:05 10° N
Cosmos 2278 Rocket 3.3 19:50:09 10° NNW 19:55:33 47° WSW 20:00:56 10° S
Abrixas 2.8 19:55:09 10° SSW 19:58:01 44° SE 20:00:02 17° ENE
Meteor 1-22 Rocket 4.4 19:54:08 10° SSW 19:59:29 71° W 20:04:47 10° N
ASTEX 1 4.5 19:56:10 10° NE 19:59:59 22° E 20:03:46 10° SE
Cosmos 2297 3.7 19:56:07 10° NNW 20:01:49 89° ENE 20:07:26 10° SSE
CENTAUR R/B 3.3 19:57:50 10° SSE 20:02:28 24° ESE 20:07:28 10° ENE
Spot 2 Rocket 3.7 19:58:47 10° SSE 20:03:38 50° ENE 20:08:29 10° N
Helios 1A 3.4 20:01:52 10° SE 20:05:49 41° ENE 20:09:48 10° N
NOSS 3-2 (C) 3.7 20:00:10 10° SW 20:06:10 74° WNW 20:12:41 10° NNE
Centaur D-1A AC-32 4.4 20:08:14 10° SW 20:09:24 11° SSW 20:10:32 10° S
Meteor 1-24 Rocket 4.1 20:05:46 10° NNW 20:11:18 65° W 20:16:38 10° S
Cosmos 1943 4.2 20:07:01 10° SSE 20:11:19 23° E 20:15:38 10° NE
Cosmos 1470 4.3 20:13:51 19° ENE 20:13:51 19° ENE 20:15:36 10° NE
Cosmos 2056 Rocket 4.2 20:07:26 10° NNW 20:12:47 61° WSW 20:18:05 10° S
Cosmos 2369 Rocket 3.8 20:10:07 10° NNE 20:13:24 15° NE 20:14:17 15° ENE
Cosmos 724 4.2 20:09:01 10° SSW 20:14:53 79° ESE 20:20:57 10° NNE
Cosmos 1603 3.7 20:09:32 10° S 20:15:11 64° ESE 20:20:52 10° NNE
SJ-6B 3.4 20:12:13 10° S 20:16:07 61° W 20:20:07 10° NNW
GPS 2-04 Rocket1 2.9 20:15:10 10° SW 20:18:30 43° SSE 20:19:39 31° ESE
Nadezhda 4 Rocket 4.2 20:16:23 10° N 20:22:24 47° E 20:28:20 10° SSE
HJ-1C 3.3 20:22:46 10° S 20:26:06 85° WSW 20:29:29 10° NNW
Cosmos 1758 3.5 20:23:28 10° S 20:27:32 78° W 20:31:39 10° N
Spot 1 4.4 20:23:44 10° S 20:28:33 76° WSW 20:33:07 10° NNW
Cosmos 1092 Rocket 4.4 20:23:39 10° N 20:29:23 38° ENE 20:32:27 24° SE
Meteor 2-12 Rocket 4.4 20:23:55 10° S 20:30:04 84° E 20:36:14 10° N
ISS -3.4 20:29:55 10° SW 20:33:07 63° SE 20:33:16 61° ESE
FengYun 1-2 T 4.1 20:30:57 10° SSE 20:36:28 80° ENE 20:41:58 10° N
Cosmos 1674 3.6 20:33:57 10° N 20:36:37 31° NE 20:36:37 31° NE
OAO 3 Rocket 3.1 20:34:15 10° W 20:39:02 88° S 20:40:37 43° E
In-Cosmos 22 4.5 20:34:24 10° NNW 20:40:10 73° W 20:45:52 10° S
Cosmos 1634 Rocket 4.3 20:35:08 10° SSE 20:40:57 43° E 20:46:46 10° NNE
ASTRO E2 3.2 20:38:41 10° W 20:42:33 44° S 20:43:08 41° SSE
Cosmos 1766 Rocket 4.2 20:38:59 10° NNW 20:43:15 55° W 20:47:27 10° S
USA 215 3.8 20:36:55 10° NE 20:43:18 58° NW 20:49:40 10° WSW
ALOS 2.1 20:42:33 25° SSE 20:45:13 73° ENE 20:49:53 10° N
Meteor 1-29 4.2 20:44:17 10° N 20:47:37 43° WNW 20:50:56 10° SSW
BREEZE-M DEB (TANK) 4.4 20:29:13 10° NW 20:49:10 71° SW 20:52:19 28° SSE
Helios 1B rocket 3.8 20:45:43 10° N 20:49:33 39° WNW 20:53:23 10° SW
OAO 1 Rocket 4.3 20:50:01 10° W 20:55:23 89° S 20:56:34 56° E
ATLAS 5 CENTAUR R/B 3.7 20:51:54 10° WSW 20:56:03 29° NW 21:00:29 10° N
CZ-4B DEB 3.6 20:57:05 47° NNW 20:57:05 47° NNW 20:59:32 10° NNW
Cosmos-2242 4.4 20:53:03 10° SSW 20:57:08 39° W 21:01:16 10° N
SeaSat 1 2.3 20:52:59 10° NNE 20:57:54 67° ESE 21:02:47 10° SSW
Meteor 1-21 Rocket 4.4 20:52:34 10° NNW 20:58:05 68° W 21:03:33 10° S
Atlas Centaur 2 4.1 20:54:56 10° W 21:02:23 34° SSW 21:06:05 23° SSE
CZ-2D R/B 3.7 21:09:16 60° NW 21:09:16 60° NW 21:12:39 10° NNW
Cosmos 1842 Rocket 4.0 21:08:19 10° SSW 21:12:34 59° W 21:16:52 10° N
SEDSat Delta rocket 4.1 21:06:26 10° W 21:13:05 61° S 21:14:10 54° SSE
Cosmos 1500 Rocket 3.8 21:12:32 10° NNW 21:16:35 66° WNW 21:16:35 66° WNW
H-2A R/B 4.2 21:25:26 38° WNW 21:25:26 38° WNW 21:28:24 10° NNW
Cosmos 839 Rocket 4.3 21:17:39 10° NNW 21:24:46 54° NE 21:24:46 54° NE
Gbstr 26 Del rocket 3.8 21:24:40 10° WSW 21:28:30 58° W 21:28:30 58° W
Cosmos 1627 Rocket 4.4 21:23:52 10° N 21:29:33 71° NE 21:29:33 71° NE
Resurs 01 Rocket 4.4 21:28:40 10° SW 21:31:33 17° W 21:34:25 10° NW
CENTAUR R/B 3.3 21:46:48 10° SW 21:52:35 48° NW 21:59:04 10° NNE
Cosmos 1943 4.3 21:49:45 10° SW 21:55:02 41° WNW 22:00:20 10° N
Cosmos 2369 Rocket 3.2 21:52:19 10° NNW 21:56:06 43° NW 21:56:06 43° NW
Cosmos 1943 Rocket 4.0 21:56:12 10° N 21:58:11 22° N 21:58:11 22° N
